Location: El Bakhil
(32.7726°N, 5.5387°W)
Time: 12:05:28
(UTC+00:00)

Cosmos 1339 Rocket - Pass Details

Date: 03 March 2021
Orbit: 943 x 1005 km, 82.9° (Epoch: 15 April)

Event Time Altitude Azimuth Distance (km) Brightness Sun altitude
Rises 20:06:56 0° 355° (N) 3,657 7.7 -23.0°
Reaches altitude 10° 20:09:25 10° 356° (N) 2,716 7.0 -23.5°
Maximum altitude 20:15:40 83° 85° (E) 991 4.4 -24.8°
Enters shadow 20:21:28 13° 173° (S) 2,555 6.5 -26.0°
